Погода в Джикимде

Погода в Джикимде : погода сейчас, прогноз погоды и архив. Всё, что Вы хотите узнать о погоде в Джикимде!

Поиск расширенной информации на нашем сайте:

Другие новости

Новости СМИ2

Главная страница сайта

Новости сайта

03.07.2017

Напоминаем, что на нашем специализированном сайте Метеоцентр.Азия вы можете получить высокодетализированные автоматические прогнозы погоды по пунктам России, СНГ и мира в авиационном формате (включающие направление и скорость ветра, видимость, явления погоды, количество и форму облачности, нижнюю и верхнюю границу облачности).


Погода в Джикимде - сегодня

Время (UTC), дата Ветер
(°,м/с) 
Видим.   Явления Облачность Т
(°С)
Тd
(°С)
f(%) Тe
(°С)
Pmin
(гПа)
dP
(гПа)
Po
(мм)
O2
(г/м3)
Тmin Tmax R s Состояние
почвы
21 16.09.17 тихо ()   20000 м    10/0 верхняя 
[Cs]
+3 +2.2 94 +3  1008.4  1.6  740  295           
00 17.09.17 тихо ()   20000 м    8/0 верхняя 
[Ci sp]
+4.3 +1.5 82 +4  1009.9  1.5  741  294  +1.2        влажная 
03 17.09.17 290 (З) 20000 м    8/8 600 м верхняя 
[Cu med, cong|Ci fib]
+8.7 -0.8 51 +10  1009.9  0.3  741  290           
06 17.09.17 180 (Ю) 20000 м    8/6 600 м верхняя 
[Cu med, cong|Ci fib]
+10 -3.5 38 +11  1009.7  741  289           
09 17.09.17 050 (СВ) 20000 м    8/4 600 м верхняя 
[Sc|Ci]
+9.9 -2.5 42 +11  1009.4  -0.3  741  288           
12 17.09.17 тихо ()   20000 м    10/10 600 м 
[Sc]
+5.6 +0.5 70 +6  1010.1  0.4  742  293    +11.3       
15 17.09.17 050 (СВ) 20000 м    10/10 600 м 
[Sc]
+5.4 +0.5 71 +6  1010  -0.1  741  293           
18 17.09.17 тихо ()   20000 м    10/10 600 м 
[Sc]
+3.6 +0.4 80 +4  1009.7  -0.5  741  295           
21 17.09.17 тихо ()   20000 м    10/10 600 м 
[Sc]
+1.3 -0.7 86 +1  1011.1  1.1  742  298           
00 18.09.17 030 (СВ) 20000 м    10/10 1000 м 
[Sc]
+4.3 +1.5 82 +5  1011.7  0.9  743  294  +1.3        влажная 
03 18.09.17 тихо ()   20000 м    10/10 1000 м 
[Sc]
+7.3 +6.2 93 +7  1011.2  -0.2  742  290           
06 18.09.17 050 (СВ) 20000 м    10/10 1000 м 
[Sc]
+9.2 -0.1 52 +9  1011.3  742  289           
09 18.09.17 050 (СВ) 20000 м  слаб. ливневой дождь  10/10 600 м кучево-дожд. 
[Cb cap]
+5.5 +3.3 86 +6  1013.5  -2.2  744  293           
15 18.09.17 090 (В) 20000 м  {ливн. осадки}  10/10 600 м кучево-дожд. 
[Cb cap]
+2.7 +2.2 96 +2  1015.9  0.1  746  297           
18 18.09.17 050 (СВ) 20000 м  {ливн. осадки}  10/10 600 м кучево-дожд. 
[Cb cap]
+1.9 +1.4 96 +3  1016.2  0.3  746  298           
21 18.09.17 180 (Ю) 20000 м    10/10 600 м кучево-дожд. 
[Cb cap]
+1.9 +0.6 91 +3  1015.8  -0.4  746  298           
00 19.09.17 180 (Ю) 20000 м    10/10 600 м кучево-дожд. 
[Cb cap]
+3.2 +0.8 84 +3  1016  0.2  746  297  +1.9      влажная 
03 19.09.17 130 (ЮВ) 20000 м    9/9 600 м кучево-дожд. 
[Cb cap]
+4.5 +1.7 82 +5  1015.8  -0.1  746  295           
06 19.09.17 180 (Ю) 20000 м    10/9 600 м кучево-дожд., средняя 
[Cb cap|As trans]
+6 +0.9 70 +6  1014.8  -0.8  745  294           
09 19.09.17 320 (СЗ) 20000 м    10/9 600 м верхняя 
[Cs]
+6.4 +2.5 76 +7  1014.3  -0.5  745  293           
12 19.09.17 тихо ()   20000 м    10/8 600 м средняя 
[Sc|As trans]
+0.8 +0 94 +1  1014.2  -0.5  744  299    +6.4       
15 19.09.17 тихо ()   20000 м    ясно 
-0.8 -1.4 96 -1  1014.9  0.4  745  301           
18 19.09.17 140 (ЮВ) 20000 м    ясно 
-2 -2.6 96 -1  1014.7  -0.2  744  302           
21 19.09.17 тихо ()   20000 м    ясно 
-3.6 -4.6 93 -4  1015.2  0.4  745  305           
00 20.09.17 тихо ()   20000 м    10/10 1000 м 
[Ac trans]
-2.1 -4.4 84 -2  1014.8  -0.3  744  303  -3.9        замёрзшая 
Время (UTC), дата Ветер
(°,м/с) 
Видим.   Явления Облачность Т
(°С)
Тd
(°С)
f(%) Тe
(°С)
Pmin
(гПа)
dP
(гПа)
Po
(мм)
O2
(г/м3)
Тmin Tmax R s Состояние
почвы

Для получения пояснительной информации подведите курсор к названию столбца.

ПОГОДА в Джикимде - архив

Всё, что Вы хотите узнать о погоде в Джикимде - удобно и подробно!

Выберите нужную дату (начиная с 1 января 2015* года) и нажмите кнопку "Найти".
Будут отображены архивные сводки погоды по пункту Джикимда, начиная с указанной даты.


Отображать данные в формате CSV (для использования в таблицах Excel)


Внимание! Наш архив погоды предназначен исключительно для личного некоммерческого использования в познавательных целях. Если Вам необходимы официальные справки о состоянии погоды (для производственных, юридических, коммерческих и т.п. целей), обращайтесь в органы Росгидромета.

*Примечание: данная дата относится к архиву по метеостанциям СССР (Россия, СНГ, Балтия).
Архив по метеостанциям Зарубежной Европы и Азии (кроме Китая) хранится 10 дней, по другим регионам земного шара (Китай, Африка, Америка, Австралия, Океания) - 1 день.

Джикимда - район местоположения метеостанции


Название, широта, долгота, высота метеостанции:
Джикимда 59°ш. 121.8°д. 170 м над ур. моря [Российская Федерация]

Дополнительная информация

В oтличие oт бoльшинства пoгoдных сайтoв мы публикуем пoдрoбную метеoинфoрмацию в детальнoм прoфессиoнальнoм фoрмате.

Характеристики температуры и влажнoсти вoздуха измеряются на высoте 2 м в тени вдали oт зданий и деревьев.
Скoрoсть ветра измеряется на высoте 10 м (на урoвне рoста челoвека скoрoсть ветра ниже в 1.5-2 раза). Если метеoстанция нахoдится в гoрoде или в лесу, тo скoрoсть ветра занижена на 2-4 м/с пo сравнению с oткрытым местoм. Скoрoсть ветра над акватoриями крупных рек и oзёр, а также на вершинах хoлмoв на 2-5 м/с выше, чем в oбычных услoвиях.
Атмoсфернoе давление в разных тoчках местнoсти мoжет значительнo oтличаться oт давления на метеoстанции, в зависимoсти oт услoвий рельефа (при пoдъёме на 10 м давление пoнижается примернo на 1 мм рт.ст.).